Flag for France Weather past 2 weeks in Orléans, France

Now
63 °F

Mostly cloudy.


Feels Like: 63 °F
Forecast: 47 / 64 °F
Wind: 10 mph from North

Location: Orleans Airport

Current Time: Sep 5, 2015 at 2:33:48 PM

Latest Report: Sep 5, 2015 at 2:00 PM


Visibility: N/A

Pressure: 30.15 "Hg

Humidity: 59%

Dew point: 48 °F

Location of OrléansLocation

Historic Weather in Orléans — Graph

°F

Orléans temperature yesterday

Maximum temperature yesterday: 66 °F (at 3:30 PM)
Minimum temperature yesterday: 54 °F (at 12:30 AM)
Average temperature yesterday: 57 °F

Past Weeks' High & Low Weather Summary

 TemperatureHumidityPressure
High93 °F (Aug 30, 4:30 PM)100% (Aug 27, 10:00 AM)30.18 "Hg (Aug 27, 10:00 AM)
Low46 °F (Sep 3, 7:00 AM)27% (Aug 22, 4:00 PM)29.47 "Hg (Aug 24, 11:00 AM)
Average66 °F70%29.95 "Hg
* Reported Aug 21 1:00 PM — Sep 5 1:30 PM, Orléans, Weather by CustomWeather, © 2015

Note: Actual official high and low records may vary slightly from our data, if they occured in-between our weather recording intervals... More about our weather records

Advertising

Orléans weather history for previous 24 hours

 ConditionsComfort  
Time TempWeatherWind HumidityBarometerVisibility
1:30 PM
Sat, Sep 5
66 °FPassing clouds.8 mph52%30.15 "HgN/A
1:00 PM64 °FBroken clouds.10 mph56%30.15 "HgN/A
12:30 PM63 °FPartly sunny.10 mph64%30.15 "HgN/A
12:00 PM63 °FBroken clouds.9 mph59%30.15 "HgN/A
11:30 AM61 °FPartly sunny.9 mph63%30.15 "HgN/A
11:00 AM59 °FPartly sunny.10 mph72%30.15 "HgN/A
10:30 AM59 °FLight rain. Clear.7 mph77%30.15 "HgN/A
10:00 AM57 °FSunny.7 mph77%30.12 "Hg10 mi
9:30 AM57 °FSunny.6 mph77%30.12 "Hg10 mi
9:00 AM54 °FOvercast.6 mph88%30.12 "HgN/A
8:30 AM52 °FMostly cloudy.5 mph94%30.12 "HgN/A
8:00 AM52 °FCool.3 mph94%30.12 "HgN/A
7:30 AM50 °FCool.5 mph94%30.12 "HgN/A
7:00 AM50 °FCool.3 mph94%30.09 "HgN/A
6:30 AM50 °FCool.3 mph94%30.09 "HgN/A
6:00 AM48 °FCool.5 mph100%30.09 "HgN/A
5:30 AM48 °FCool.3 mph94%30.09 "HgN/A
5:00 AM48 °FClear.6 mph87%30.09 "Hg10 mi
4:30 AM48 °FClear.5 mph94%30.09 "Hg10 mi
4:00 AM50 °FClear.5 mph94%30.09 "Hg10 mi
3:30 AM52 °FClear.5 mph88%30.09 "Hg10 mi
3:00 AM52 °FClear.5 mph88%30.09 "Hg10 mi
2:30 AM52 °FClear.5 mph88%30.09 "Hg10 mi
2:00 AM54 °FClear.6 mph88%30.09 "Hg10 mi
1:30 AM54 °FClear.3 mph88%30.09 "Hg10 mi
1:00 AM55 °FClear.5 mph82%30.09 "Hg10 mi
12:30 AM55 °FClear.5 mph82%30.09 "Hg10 mi
12:00 AM55 °FClear.6 mph82%30.09 "Hg10 mi
11:30 PM
Fri, Sep 4
55 °FClear.5 mph82%30.09 "Hg10 mi
11:00 PM55 °FClear.3 mph77%30.09 "Hg10 mi
10:30 PM55 °FClear.5 mph77%30.09 "Hg10 mi
10:00 PM55 °FClear.6 mph77%30.09 "Hg10 mi
9:30 PM57 °FClear.6 mph72%30.09 "Hg10 mi
9:00 PM57 °FSunny.8 mph67%30.07 "Hg10 mi
8:30 PM59 °FSunny.7 mph63%30.07 "Hg10 mi
8:00 PM59 °FSunny.8 mph63%30.07 "Hg10 mi
7:30 PM61 °FSunny.12 mph59%30.07 "Hg10 mi
7:00 PM61 °FSunny.8 mph59%30.07 "Hg10 mi
6:30 PM61 °FSunny.8 mph59%30.07 "Hg10 mi
6:00 PM61 °FPassing clouds.9 mph55%30.04 "HgN/A
5:30 PM61 °FPassing clouds.10 mph59%30.04 "HgN/A
5:00 PM61 °FSunny.10 mph55%30.07 "Hg10 mi
4:30 PM61 °FSunny.9 mph55%30.07 "Hg10 mi
4:00 PM61 °FSunny.8 mph55%30.07 "Hg10 mi
3:30 PM66 °FPassing clouds.8 mph46%30.07 "HgN/A
3:00 PM63 °FMore clouds than sun.6 mph52%30.07 "HgN/A
2:30 PM61 °FMore clouds than sun.6 mph55%30.07 "HgN/A
2:00 PM61 °FOvercast.8 mph59%30.07 "HgN/A
Weather by CustomWeather, © 2015

See weather overviewHow to use our weather pages